Location: Breitenfeld
(46.8500°N, 15.6333°E)
Time: 08:52:56
(UTC+00:00)

CZ-2C R/B - Pass Details

Date: 09 April 2020
Orbit: 705 x 907 km, 98.1° (Epoch: 02 June)

Event Time Altitude Azimuth Distance (km) Brightness Sun altitude
Rises 18:31:18 0° 167° (SSE) 3,155 5.8 -9.5°
Reaches altitude 10° 18:33:36 10° 168° (SSE) 2,216 5.1 -9.8°
Maximum altitude 18:38:27 81° 257° (WSW) 726 3.0 -10.6°
Drops below altitude 10° 18:43:13 10° 345° (NNW) 2,186 6.0 -11.3°
Sets 18:45:29 0° 346° (NNW) 3,110 6.8 -11.7°
